Weather History for KCNU - April, 2014

Change the Weather History Date:

Wednesday, April 16, 2014

  Actual Average Record
Temperature  
Mean Temperature 54 °F 57 °F  
Max Temperature 65 °F 68 °F 88 °F (2006)
Min Temperature 43 °F 46 °F 24 °F (1953)
Degree Days  
Heating Degree Days 11 9  
Month to date heating degree days 188 176  
Since 1 July heating degree days 4894 4307  
Cooling Degree Days 0 1  
Month to date cooling degree days 4 12  
Year to date cooling degree days 4 16  
Growing Degree Days 4 (Base 50)    
Moisture  
Dew Point 31 °F    
Average Humidity 44    
Maximum Humidity 58    
Minimum Humidity 30    
Precipitation  
Precipitation 0.00 in 0.15 in 1.20 in (1978)
Month to date precipitation 0.87 2.13  
Year to date precipitation 2.81 8.33  
Sea Level Pressure  
Sea Level Pressure 29.97 in    
Wind  
Wind Speed 19 mph (South)    
Max Wind Speed 36 mph    
Max Gust Speed 46 mph    
Visibility 10 miles    
Events      
T = Trace of Precipitation, MM = Missing Value Source: NWS Daily Summary

Daily Weather History Graph

Daily Weather History Graph

Search for Another Location

Airport or City:

Trip Planner

Search our weather history database for the weather conditions in past years. The results will help you decide how hot, cold, wet, or windy it might be!

Date:

Astronomy

Apr. 16, 2014 Rise Set
Actual Time 6:45 AM CDT 7:58 PM CDT
Civil Twilight 6:18 AM CDT 8:25 PM CDT
Nautical Twilight 5:46 AM CDT 8:58 PM CDT
Astronomical Twilight 5:12 AM CDT 9:31 PM CDT
Moon 9:41 PM CDT (4/16) 7:34 AM CDT (4/16)
Length of Visible Light 14h 07m
Length of Day
13h 12m
Full, 98% of the Moon is Illuminated
Apr 16
Full
Apr 22
Last Quarter
Apr 29
New
May 6
First Quarter
May 14
Full

Hourly Weather History & Observations

Time (CDT) Temp. Windchill Dew Point Humidity Pressure Visibility Wind Dir Wind Speed Gust Speed Precip Events Conditions
12:52 AM 46.9 °F - 28.0 °F 48% 30.03 in 10.0 mi SSE 15.0 mph - N/A   Clear
1:52 AM 46.9 °F - 28.0 °F 48% 30.01 in 10.0 mi SSE 13.8 mph - N/A   Clear
2:52 AM 44.6 °F 38.1 °F 28.4 °F 53% 30.00 in 10.0 mi SSE 13.8 mph - N/A   Clear
3:52 AM 44.1 °F 37.7 °F 28.0 °F 53% 30.00 in 10.0 mi SSE 12.7 mph - N/A   Clear
4:52 AM 43.0 °F 36.0 °F 28.9 °F 58% 29.98 in 10.0 mi SSE 13.8 mph - N/A   Clear
5:52 AM 44.1 °F 37.1 °F 28.9 °F 55% 29.98 in 10.0 mi SSE 15.0 mph - N/A   Clear
6:52 AM 43.0 °F 36.0 °F 28.9 °F 58% 29.99 in 10.0 mi SSE 13.8 mph - N/A   Clear
7:52 AM 45.0 °F 37.6 °F 30.0 °F 56% 29.99 in 10.0 mi SSE 17.3 mph - N/A   Clear
8:52 AM 48.2 °F - 30.2 °F 50% 29.99 in 10.0 mi South 24.2 mph 32.2 mph N/A   Clear
9:52 AM 53.1 °F - 30.9 °F 43% 29.98 in 10.0 mi South 27.6 mph 38.0 mph N/A   Clear
10:52 AM 55.9 °F - 30.9 °F 39% 29.99 in 10.0 mi South 31.1 mph 41.4 mph N/A   Clear
11:52 AM 59.0 °F - 32.0 °F 36% 29.98 in 10.0 mi South 31.1 mph 41.4 mph N/A   Clear
12:52 PM 60.8 °F - 33.8 °F 36% 29.95 in 10.0 mi South 28.8 mph 40.3 mph N/A   Clear
1:52 PM 62.1 °F - 33.1 °F 34% 29.92 in 10.0 mi South 29.9 mph 41.4 mph N/A   Clear
2:52 PM 63.0 °F - 32.0 °F 31% 29.93 in 10.0 mi South 28.8 mph 39.1 mph N/A   Clear
3:52 PM 64.0 °F - 33.1 °F 31% 29.91 in 10.0 mi South 20.7 mph 33.4 mph N/A   Clear
4:52 PM 64.0 °F - 32.0 °F 30% 29.90 in 10.0 mi South 27.6 mph 33.4 mph N/A   Clear
5:52 PM 64.0 °F - 33.1 °F 31% 29.90 in 10.0 mi South 21.9 mph 27.6 mph N/A   Clear
6:52 PM 62.1 °F - 33.1 °F 34% 29.92 in 10.0 mi South 17.3 mph - N/A   Clear
7:52 PM 57.9 °F - 34.0 °F 41% 29.94 in 10.0 mi South 15.0 mph - N/A   Clear
8:52 PM 53.1 °F - 34.0 °F 48% 29.96 in 10.0 mi SSE 9.2 mph - N/A   Clear
9:52 PM 53.1 °F - 34.0 °F 48% 29.99 in 10.0 mi South 10.4 mph - N/A   Clear
10:52 PM 53.1 °F - 34.0 °F 48% 30.00 in 10.0 mi South 12.7 mph - N/A   Clear
11:52 PM 51.1 °F - 34.0 °F 52% 30.03 in 10.0 mi SSW 8.1 mph - N/A   Clear